This is the latest recevied weather packets stored in our database for station/object VE7THZ. If no packets are shown the sender has not sent any weather packets the latest 10 day(s).
| Time | Temp. | Humidity | Pressure | Rain* | Wind** | Luminosity | Snow |
|---|---|---|---|---|---|---|---|
| 1777680650 | 21.67° C | 28% | 1012.8 hPa | 0 mm | - | - | - |
| 1777680043 | 21.67° C | 26% | 1012.9 hPa | 0 mm | - | - | - |
| 1777679411 | 21.11° C | 25% | 1013 hPa | 0 mm | - | - | - |
| 1777678802 | 21.11° C | 29% | 1013 hPa | 0 mm | - | - | - |
| 1777678185 | 21.11° C | 29% | 1013.1 hPa | 0 mm | - | - | - |
| 1777677576 | 21.11° C | 30% | 1013.2 hPa | 0 mm | - | - | - |
| 1777676954 | 21.11° C | 30% | 1013.2 hPa | 0 mm | - | - | - |
| 1777676374 | 21.11° C | 29% | 1013.3 hPa | 0 mm | - | - | - |
| 1777675796 | 21.11° C | 28% | 1013.6 hPa | 0 mm | - | - | - |
| 1777675210 | 21.11° C | 26% | 1013.6 hPa | 0 mm | - | - | - |
| 1777674604 | 21.11° C | 29% | 1013.7 hPa | 0 mm | - | - | - |
| 1777674025 | 21.67° C | 28% | 1013.7 hPa | 0 mm | - | - | - |
| 1777673397 | 21.67° C | 31% | 1014 hPa | 0 mm | - | - | - |
| 1777672803 | 21.67° C | 30% | 1014 hPa | 0 mm | - | - | - |
| 1777672199 | 21.11° C | 31% | 1014.1 hPa | 0 mm | - | - | - |
| 1777671565 | 20.56° C | 32% | 1014.3 hPa | 0 mm | - | - | - |
| 1777670934 | 20° C | 32% | 1014.4 hPa | 0 mm | - | - | - |
| 1777670336 | 20° C | 29% | 1014.5 hPa | 0 mm | - | - | - |
| 1777669717 | 20.56° C | 30% | 1014.6 hPa | 0 mm | - | - | - |
| 1777669107 | 20.56° C | 28% | 1014.7 hPa | 0 mm | - | - | - |
| 1777668483 | 20.56° C | 28% | 1014.8 hPa | 0 mm | - | - | - |
| 1777667858 | 21.11° C | 29% | 1014.8 hPa | 0 mm | - | - | - |
| 1777667283 | 20.56° C | 30% | 1014.9 hPa | 0 mm | - | - | - |
| 1777666670 | 20° C | 31% | 1014.9 hPa | 0 mm | - | - | - |
| 1777666052 | 19.44° C | 31% | 1015 hPa | 0 mm | - | - | - |
* Rain latest hour (hover to see other rain measurements)
** Current wind speed in m/s (hover to see current wind gust speed)